TimeCST,TemperatureF,Dew PointF,Humidity,Sea Level PressureIn,VisibilityMPH,Wind Direction,Wind SpeedMPH,Gust SpeedMPH,PrecipitationIn,Events,Conditions,WindDirDegrees,DateUTC
12:53 AM,30.9,21.0,67,30.33,10.0,NNW,8.1,-,N/A,,Mostly Cloudy,340,2014-01-15 06:53:00
1:53 AM,30.0,21.0,69,30.33,10.0,North,5.8,-,N/A,,Scattered Clouds,350,2014-01-15 07:53:00
2:53 AM,24.1,19.0,81,30.33,10.0,West,5.8,-,N/A,,Partly Cloudy,270,2014-01-15 08:53:00
3:53 AM,21.0,17.1,85,30.32,10.0,West,4.6,-,N/A,,Clear,280,2014-01-15 09:53:00
4:53 AM,25.0,19.9,81,30.31,10.0,NW,8.1,-,N/A,,Partly Cloudy,310,2014-01-15 10:53:00
5:53 AM,24.1,19.9,84,30.31,10.0,WNW,8.1,-,N/A,,Partly Cloudy,290,2014-01-15 11:53:00
6:53 AM,21.9,19.0,89,30.31,10.0,WSW,6.9,-,N/A,,Scattered Clouds,250,2014-01-15 12:53:00
7:53 AM,23.0,19.0,85,30.31,10.0,West,5.8,-,N/A,,Scattered Clouds,270,2014-01-15 13:53:00
8:53 AM,30.0,24.1,79,30.29,10.0,West,4.6,-,N/A,,Scattered Clouds,270,2014-01-15 14:53:00
9:53 AM,36.0,24.1,62,30.28,10.0,WNW,6.9,-,N/A,,Mostly Cloudy,300,2014-01-15 15:53:00
10:53 AM,39.9,21.9,49,30.26,10.0,West,8.1,-,N/A,,Mostly Cloudy,260,2014-01-15 16:53:00
11:53 AM,44.1,21.0,40,30.21,10.0,West,6.9,-,N/A,,Scattered Clouds,270,2014-01-15 17:53:00
12:53 PM,46.0,21.0,37,30.16,10.0,SW,12.7,16.1,N/A,,Mostly Cloudy,230,2014-01-15 18:53:00
1:53 PM,48.0,21.0,34,30.11,10.0,SSW,15.0,-,N/A,,Mostly Cloudy,210,2014-01-15 19:53:00
2:53 PM,48.9,23.0,36,30.07,10.0,SSW,15.0,-,N/A,,Mostly Cloudy,210,2014-01-15 20:53:00
3:53 PM,48.9,24.1,38,30.04,10.0,SSW,11.5,-,N/A,,Mostly Cloudy,200,2014-01-15 21:53:00
4:53 PM,46.9,24.1,41,30.01,10.0,South,10.4,-,N/A,,Scattered Clouds,190,2014-01-15 22:53:00
5:53 PM,39.0,25.0,57,30.00,10.0,South,9.2,-,N/A,,Scattered Clouds,180,2014-01-15 23:53:00
6:53 PM,39.9,25.0,55,29.98,10.0,South,12.7,-,N/A,,Scattered Clouds,180,2014-01-16 00:53:00
7:53 PM,39.0,25.0,57,29.96,10.0,South,9.2,-,N/A,,Mostly Cloudy,180,2014-01-16 01:53:00
8:53 PM,41.0,26.1,55,29.92,10.0,South,13.8,-,N/A,,Mostly Cloudy,190,2014-01-16 02:53:00
9:53 PM,39.9,26.1,58,29.90,10.0,SSW,9.2,-,N/A,,Mostly Cloudy,200,2014-01-16 03:53:00
10:53 PM,39.0,26.1,60,29.88,10.0,SSW,8.1,-,N/A,,Mostly Cloudy,210,2014-01-16 04:53:00
11:53 PM,36.0,25.0,64,29.87,10.0,West,8.1,-,N/A,,Mostly Cloudy,270,2014-01-16 05:53:00